Weather History for Waco, TX

Change the Weather History Date:

Thursday, December 6, 2012

  Actual Average Record
Temperature  
Mean Temperature 61 °F 50 °F  
Max Temperature 71 °F 61 °F 82 °F (1966)
Min Temperature 51 °F 39 °F 15 °F (1950)
Degree Days  
Heating Degree Days 4 15  
Month to date heating degree days 16 87  
Since 1 July heating degree days 342 415  
Cooling Degree Days 0 0  
Month to date cooling degree days 23 0  
Year to date cooling degree days 3235 2792  
Growing Degree Days 12 (Base 50)    
Moisture  
Dew Point 52 °F    
Average Humidity 69    
Maximum Humidity 93    
Minimum Humidity 44    
Precipitation  
Precipitation 0.00 in 0.09 in 2.17 in (1935)
Month to date precipitation 0.00 0.51  
Year to date precipitation 31.53 32.45  
Snow  
Snow 0.00 in 0.00 in T in (2013)
Month to date snowfall 0.0 0.0  
Since 1 July snowfall 0.0 0.1  
Snow Depth 0.00 in    
Sea Level Pressure  
Sea Level Pressure 29.94 in    
Wind  
Wind Speed 12 mph (South)    
Max Wind Speed 18 mph    
Max Gust Speed 23 mph    
Visibility 6 miles    
Events Fog    
T = Trace of Precipitation, MM = Missing Value Source: NWS Daily Summary

Daily Weather History Graph

Daily Weather History Graph

Search for Another Location

Airport:

Trip Planner

Search our weather history database for the weather conditions in past years. The results will help you decide how hot, cold, wet, or windy it might be!

Date:

Astronomy

Dec. 06, 2012 Rise Set
Actual Time 7:15 AM CST 5:25 PM CST
Civil Twilight 6:48 AM CST 5:51 PM CST
Nautical Twilight 6:18 AM CST 6:22 PM CST
Astronomical Twilight 5:48 AM CST 6:51 PM CST
Moon No Moon Rise 12:29 PM CST (12/6)
Length of Visible Light 11h 03m
Length of Day
10h 10m
Waning Gibbous, 49% of the Moon is Illuminated
Dec 6
Waning Gibbous
Dec 13
New
Dec 19
First Quarter
Dec 28
Full
Jan 4
Last Quarter

Hourly Weather History & Observations

Time (CST) Temp. Dew Point Humidity Pressure Visibility Wind Dir Wind Speed Gust Speed Precip Events Conditions
12:19 AM 51.8 °F 48.2 °F 88% 30.05 in 7.0 mi SSE 5.8 mph - N/A   Scattered Clouds
12:28 AM 55.4 °F 51.8 °F 88% 30.05 in 6.0 mi SSE 8.1 mph - N/A   Mostly Cloudy
12:51 AM 55.9 °F 53.1 °F 90% 30.03 in 4.0 mi SSE 10.4 mph - N/A   Overcast
1:46 AM 55.4 °F 53.6 °F 94% 30.02 in 3.0 mi SSE 13.8 mph - N/A   Overcast
1:51 AM 55.9 °F 54.0 °F 93% 30.01 in 2.0 mi SSE 15.0 mph - N/A   Overcast
2:00 AM 55.4 °F 53.6 °F 94% 30.01 in 1.0 mi SSE 13.8 mph - N/A   Overcast
2:07 AM 55.4 °F 53.6 °F 94% 30.01 in 0.5 mi SSE 12.7 mph - N/A Fog Fog
2:25 AM 55.4 °F 53.6 °F 94% 30.00 in 1.0 mi SSE 10.4 mph - N/A   Overcast
2:51 AM 55.0 °F 53.1 °F 93% 30.00 in 2.0 mi SSE 10.4 mph - N/A   Overcast
3:01 AM 55.4 °F 53.6 °F 94% 30.01 in 3.0 mi South 10.4 mph - N/A   Overcast
3:51 AM 55.0 °F 53.1 °F 93% 29.99 in 4.0 mi South 9.2 mph - N/A   Overcast
4:15 AM 53.6 °F 51.8 °F 94% 30.00 in 2.5 mi SSW 9.2 mph - N/A   Overcast
4:25 AM 53.6 °F 51.8 °F 94% 29.99 in 4.0 mi SSW 10.4 mph - N/A   Overcast
4:51 AM 53.1 °F 52.0 °F 96% 29.98 in 3.0 mi South 8.1 mph - N/A   Overcast
5:34 AM 53.6 °F 51.8 °F 94% 29.98 in 5.0 mi South 11.5 mph - N/A   Overcast
5:51 AM 54.0 °F 52.0 °F 93% 29.98 in 5.0 mi South 9.2 mph - N/A   Overcast
6:51 AM 55.0 °F 52.0 °F 89% 29.99 in 4.0 mi South 11.5 mph - N/A   Overcast
7:51 AM 55.0 °F 52.0 °F 89% 29.99 in 2.5 mi South 12.7 mph - N/A   Overcast
8:08 AM 55.4 °F 51.8 °F 88% 30.00 in 3.0 mi SSW 11.5 mph - N/A   Overcast
8:51 AM 55.9 °F 52.0 °F 87% 29.99 in 4.0 mi South 11.5 mph - N/A   Overcast
9:51 AM 55.9 °F 51.1 °F 84% 29.99 in 5.0 mi South 15.0 mph - N/A   Haze
10:51 AM 59.0 °F 52.0 °F 78% 29.98 in 6.0 mi South 13.8 mph - N/A   Haze
11:21 AM 60.8 °F 51.8 °F 72% 29.97 in 6.0 mi South 15.0 mph - N/A   Haze
11:51 AM 62.1 °F 52.0 °F 70% 29.94 in 7.0 mi South 17.3 mph - N/A   Overcast
12:25 PM 64.4 °F 51.8 °F 64% 29.93 in 7.0 mi South 16.1 mph - N/A   Partly Cloudy
12:51 PM 64.9 °F 52.0 °F 63% 29.90 in 8.0 mi South 13.8 mph - N/A   Clear
1:51 PM 68.0 °F 50.0 °F 52% 29.86 in 8.0 mi South 16.1 mph - N/A   Clear
2:51 PM 70.0 °F 48.9 °F 47% 29.83 in 10.0 mi South 17.3 mph - N/A   Clear
3:51 PM 71.1 °F 48.0 °F 44% 29.82 in 10.0 mi South 16.1 mph - N/A   Clear
4:51 PM 69.1 °F 46.9 °F 45% 29.82 in 10.0 mi South 10.4 mph - N/A   Clear
5:51 PM 63.0 °F 48.0 °F 58% 29.82 in 10.0 mi South 9.2 mph - N/A   Clear
6:51 PM 62.1 °F 46.9 °F 58% 29.83 in 10.0 mi SSE 6.9 mph - N/A   Clear
7:51 PM 63.0 °F 48.0 °F 58% 29.83 in 10.0 mi SSE 9.2 mph - N/A   Clear
8:51 PM 62.1 °F 50.0 °F 65% 29.84 in 10.0 mi SSE 11.5 mph - N/A   Clear
9:51 PM 62.1 °F 53.1 °F 72% 29.84 in 10.0 mi South 15.0 mph - N/A   Clear
10:51 PM 60.1 °F 53.1 °F 78% 29.84 in 9.0 mi South 12.7 mph - N/A   Clear
11:51 PM 61.0 °F 54.0 °F 78% 29.84 in 9.0 mi South 13.8 mph - N/A   Clear